Year,Month,Day,Hour,Minute,Value (Times are PST for windgust in km/hr)
2012,07,03,00,13,1.60
2012,07,03,00,14,1.60
2012,07,03,00,32,1.60
2012,07,03,00,33,1.60
2012,07,03,00,39,1.60
2012,07,03,00,41,1.60
2012,07,03,00,51,1.60
2012,07,03,01,06,1.60
2012,07,03,01,21,1.60
2012,07,03,01,22,1.60
2012,07,03,01,27,1.60
2012,07,03,01,28,1.60
2012,07,03,01,30,1.60
2012,07,03,01,36,3.20
2012,07,03,01,39,1.60
2012,07,03,01,59,1.60
2012,07,03,02,06,1.60
2012,07,03,02,08,1.60
2012,07,03,02,09,1.60
2012,07,03,02,15,1.60
2012,07,03,02,18,1.60
2012,07,03,02,19,1.60
2012,07,03,02,28,1.60
2012,07,03,02,35,1.60
2012,07,03,02,36,1.60
2012,07,03,03,08,1.60
2012,07,03,03,24,1.60
2012,07,03,03,28,1.60
2012,07,03,03,38,1.60
2012,07,03,03,41,1.60
2012,07,03,03,42,1.60
2012,07,03,03,44,1.60
2012,07,03,03,45,1.60
2012,07,03,03,46,1.60
2012,07,03,03,50,1.60
2012,07,03,03,52,4.80
2012,07,03,03,53,4.80
2012,07,03,03,58,1.60
2012,07,03,04,00,1.60
2012,07,03,04,02,1.60
2012,07,03,04,03,3.20
2012,07,03,04,05,1.60
2012,07,03,04,07,3.20
2012,07,03,04,15,1.60
2012,07,03,04,20,1.60
2012,07,03,04,30,1.60
2012,07,03,04,43,1.60
2012,07,03,04,44,1.60
2012,07,03,04,45,1.60
2012,07,03,04,47,1.60
2012,07,03,04,48,3.20
2012,07,03,04,51,1.60
2012,07,03,04,52,1.60
2012,07,03,04,53,3.20
2012,07,03,04,54,1.60
2012,07,03,04,56,1.60
2012,07,03,04,57,3.20
2012,07,03,04,58,1.60
2012,07,03,04,59,1.60
2012,07,03,05,00,4.80
2012,07,03,05,04,1.60
2012,07,03,05,08,3.20
2012,07,03,05,09,6.40
2012,07,03,05,11,3.20
2012,07,03,05,12,6.40
2012,07,03,05,13,4.80
2012,07,03,05,14,8.10
2012,07,03,05,15,4.80
2012,07,03,05,16,1.60
2012,07,03,05,17,1.60
2012,07,03,05,18,1.60
2012,07,03,05,19,1.60
2012,07,03,05,21,4.80
2012,07,03,05,23,4.80
2012,07,03,05,24,1.60
2012,07,03,05,25,1.60
2012,07,03,05,26,9.60
2012,07,03,05,27,1.60
2012,07,03,05,28,3.20
2012,07,03,05,29,1.60
2012,07,03,05,30,1.60
2012,07,03,05,31,3.20
2012,07,03,05,32,4.80
2012,07,03,05,33,4.80
2012,07,03,05,34,11.30
2012,07,03,05,35,9.60
2012,07,03,05,36,6.40
2012,07,03,05,37,9.60
2012,07,03,05,38,6.40
2012,07,03,05,39,4.80
2012,07,03,05,40,3.20
2012,07,03,05,41,6.40
2012,07,03,05,42,6.40
2012,07,03,05,43,9.60
2012,07,03,05,44,4.80
2012,07,03,05,45,6.40
2012,07,03,05,46,4.80
2012,07,03,05,47,4.80
2012,07,03,05,48,4.80
2012,07,03,05,49,6.40
2012,07,03,05,50,3.20
2012,07,03,05,51,1.60
2012,07,03,05,52,1.60
2012,07,03,05,53,3.20
2012,07,03,05,54,11.30
2012,07,03,05,55,6.40
2012,07,03,05,56,4.80
2012,07,03,05,57,11.30
2012,07,03,05,58,8.10
2012,07,03,05,59,4.80
2012,07,03,06,00,3.20
2012,07,03,06,01,16.10
2012,07,03,06,02,11.30
2012,07,03,06,03,1.60
2012,07,03,06,04,3.20
2012,07,03,06,05,6.40
2012,07,03,06,06,3.20
2012,07,03,06,07,1.60
2012,07,03,06,08,3.20
2012,07,03,06,09,1.60
2012,07,03,06,10,4.80
2012,07,03,06,11,3.20
2012,07,03,06,12,4.80
2012,07,03,06,13,4.80
2012,07,03,06,14,4.80
2012,07,03,06,15,3.20
2012,07,03,06,16,3.20
2012,07,03,06,17,1.60
2012,07,03,06,18,4.80
2012,07,03,06,19,4.80
2012,07,03,06,20,11.30
2012,07,03,06,21,1.60
2012,07,03,06,22,1.60
2012,07,03,06,23,1.60
2012,07,03,06,24,1.60
2012,07,03,06,25,3.20
2012,07,03,06,26,4.80
2012,07,03,06,27,3.20
2012,07,03,06,29,1.60
2012,07,03,06,30,8.10
2012,07,03,06,31,6.40
2012,07,03,06,32,1.60
2012,07,03,06,34,1.60
2012,07,03,06,35,1.60
2012,07,03,06,37,3.20
2012,07,03,06,38,1.60
2012,07,03,06,39,1.60
2012,07,03,06,40,1.60
2012,07,03,06,44,1.60
2012,07,03,06,46,1.60
2012,07,03,06,49,1.60
2012,07,03,06,51,1.60
2012,07,03,06,52,1.60
2012,07,03,06,54,1.60
2012,07,03,06,57,1.60
2012,07,03,06,58,1.60
2012,07,03,06,59,1.60
2012,07,03,07,00,3.20
2012,07,03,07,01,1.60
2012,07,03,07,02,1.60
2012,07,03,07,03,1.60
2012,07,03,07,04,1.60
2012,07,03,07,05,1.60
2012,07,03,07,06,4.80
2012,07,03,07,07,1.60
2012,07,03,07,08,1.60
2012,07,03,07,15,1.60
2012,07,03,07,16,1.60
2012,07,03,07,17,1.60
2012,07,03,07,23,3.20
2012,07,03,07,24,1.60
2012,07,03,07,25,1.60
2012,07,03,07,26,1.60
2012,07,03,07,27,1.60
2012,07,03,07,28,1.60
2012,07,03,07,31,1.60
2012,07,03,07,34,1.60
2012,07,03,07,38,1.60
2012,07,03,07,42,1.60
2012,07,03,07,43,1.60
2012,07,03,07,44,1.60
2012,07,03,07,45,1.60
2012,07,03,07,46,4.80
2012,07,03,07,47,4.80
2012,07,03,07,48,1.60
2012,07,03,07,49,1.60
2012,07,03,07,52,1.60
2012,07,03,07,54,1.60
2012,07,03,07,55,3.20
2012,07,03,07,57,1.60
2012,07,03,07,59,1.60
2012,07,03,08,21,1.60
2012,07,03,08,22,1.60
2012,07,03,08,23,1.60
2012,07,03,08,24,1.60
2012,07,03,08,25,1.60
2012,07,03,08,26,1.60
2012,07,03,08,27,1.60
2012,07,03,08,28,1.60
2012,07,03,08,29,9.60
2012,07,03,08,30,1.60
2012,07,03,08,31,1.60
2012,07,03,08,32,1.60
2012,07,03,08,33,4.80
2012,07,03,08,34,4.80
2012,07,03,08,35,6.40
2012,07,03,08,36,6.40
2012,07,03,08,37,1.60
2012,07,03,08,38,1.60
2012,07,03,08,39,1.60
2012,07,03,08,40,1.60
2012,07,03,08,43,1.60
2012,07,03,08,44,1.60
2012,07,03,08,45,1.60
2012,07,03,08,47,3.20
2012,07,03,08,49,1.60
2012,07,03,08,50,1.60
2012,07,03,08,52,1.60
2012,07,03,08,53,3.20
2012,07,03,08,54,6.40
2012,07,03,08,55,3.20
2012,07,03,08,56,1.60
2012,07,03,08,57,1.60
2012,07,03,08,59,1.60
2012,07,03,09,02,4.80
2012,07,03,09,03,3.20
2012,07,03,09,04,1.60
2012,07,03,09,06,1.60
2012,07,03,09,07,1.60
2012,07,03,09,08,1.60
2012,07,03,09,09,1.60
2012,07,03,09,10,4.80
2012,07,03,09,11,1.60
2012,07,03,09,12,1.60
2012,07,03,09,13,1.60
2012,07,03,09,15,1.60
2012,07,03,09,16,1.60
2012,07,03,09,17,1.60
2012,07,03,09,19,6.40
2012,07,03,09,20,3.20
2012,07,03,09,21,1.60
2012,07,03,09,22,1.60
2012,07,03,09,23,4.80
2012,07,03,09,24,1.60
2012,07,03,09,25,1.60
2012,07,03,09,26,6.40
2012,07,03,09,27,8.10
2012,07,03,09,28,6.40
2012,07,03,09,29,9.60
2012,07,03,09,30,1.60
2012,07,03,09,31,4.80
2012,07,03,09,32,4.80
2012,07,03,09,33,1.60
2012,07,03,09,34,1.60
2012,07,03,09,35,3.20
2012,07,03,09,36,8.10
2012,07,03,09,37,9.60
2012,07,03,09,38,1.60
2012,07,03,09,39,4.80
2012,07,03,09,40,4.80
2012,07,03,09,41,4.80
2012,07,03,09,42,1.60
2012,07,03,09,44,1.60
2012,07,03,09,45,1.60
2012,07,03,09,46,4.80
2012,07,03,09,47,8.10
2012,07,03,09,48,6.40
2012,07,03,09,49,8.10
2012,07,03,09,50,4.80
2012,07,03,09,51,1.60
2012,07,03,09,54,1.60
2012,07,03,09,56,1.60
2012,07,03,09,57,9.60
2012,07,03,09,58,1.60
2012,07,03,09,59,9.60
2012,07,03,10,00,6.40
2012,07,03,10,01,1.60
2012,07,03,10,02,6.40
2012,07,03,10,03,3.20
2012,07,03,10,04,8.10
2012,07,03,10,05,4.80
2012,07,03,10,06,6.40
2012,07,03,10,07,6.40
2012,07,03,10,08,17.70
2012,07,03,10,09,17.70
2012,07,03,10,10,4.80
2012,07,03,10,11,8.10
2012,07,03,10,12,8.10
2012,07,03,10,13,6.40
2012,07,03,10,14,19.30
2012,07,03,10,15,20.90
2012,07,03,10,16,16.10
2012,07,03,10,18,6.40
2012,07,03,10,19,3.20
2012,07,03,10,20,6.40
2012,07,03,10,21,8.10
2012,07,03,10,22,9.60
2012,07,03,10,23,9.60
2012,07,03,10,24,4.80
2012,07,03,10,25,6.40
2012,07,03,10,26,1.60
2012,07,03,10,28,3.20
2012,07,03,10,29,8.10
2012,07,03,10,30,9.60
2012,07,03,10,31,19.30
2012,07,03,10,32,14.50
2012,07,03,10,33,14.50
2012,07,03,10,34,25.70
2012,07,03,10,35,20.90
2012,07,03,10,36,25.70
2012,07,03,10,37,20.90
2012,07,03,10,38,17.70
2012,07,03,10,39,22.50
2012,07,03,10,40,29.00
2012,07,03,10,41,9.60
2012,07,03,10,42,20.90
2012,07,03,10,43,22.50
2012,07,03,10,44,24.20
2012,07,03,10,45,22.50
2012,07,03,10,46,19.30
2012,07,03,10,47,19.30
2012,07,03,10,48,19.30
2012,07,03,10,49,20.90
2012,07,03,10,50,20.90
2012,07,03,10,51,24.20
2012,07,03,10,52,22.50
2012,07,03,10,53,19.30
2012,07,03,10,54,22.50
2012,07,03,10,55,20.90
2012,07,03,10,56,29.00
2012,07,03,10,57,17.70
2012,07,03,10,58,16.10
2012,07,03,10,59,17.70
2012,07,03,11,00,19.30
2012,07,03,11,01,19.30
2012,07,03,11,02,19.30
2012,07,03,11,03,17.70
2012,07,03,11,04,20.90
2012,07,03,11,05,24.20
2012,07,03,11,06,22.50
2012,07,03,11,07,22.50
2012,07,03,11,08,19.30
2012,07,03,11,09,17.70
2012,07,03,11,10,14.50
2012,07,03,11,11,22.50
2012,07,03,11,12,24.20
2012,07,03,11,13,17.70
2012,07,03,11,14,20.90
2012,07,03,11,15,19.30
2012,07,03,11,16,25.70
2012,07,03,11,17,19.30
2012,07,03,11,18,20.90
2012,07,03,11,19,16.10
2012,07,03,11,20,9.60
2012,07,03,11,21,22.50
2012,07,03,11,22,22.50
2012,07,03,11,23,16.10
2012,07,03,11,24,24.20
2012,07,03,11,25,24.20
2012,07,03,11,26,16.10
2012,07,03,11,27,29.00
2012,07,03,11,28,25.70
2012,07,03,11,29,22.50
2012,07,03,11,30,24.20
2012,07,03,11,31,22.50
2012,07,03,11,32,27.40
2012,07,03,11,33,16.10
2012,07,03,11,34,24.20
2012,07,03,11,35,24.20
2012,07,03,11,36,29.00
2012,07,03,11,37,22.50
2012,07,03,11,38,22.50
2012,07,03,11,39,17.70
2012,07,03,11,40,22.50
2012,07,03,11,41,30.60
2012,07,03,11,42,22.50
2012,07,03,11,43,25.70
2012,07,03,11,44,27.40
2012,07,03,11,45,22.50
2012,07,03,11,46,27.40
2012,07,03,11,47,27.40
2012,07,03,11,48,24.20
2012,07,03,11,49,24.20
2012,07,03,11,50,25.70
2012,07,03,11,51,20.90
2012,07,03,11,52,19.30
2012,07,03,11,53,37.00
2012,07,03,11,54,20.90
2012,07,03,11,55,22.50
2012,07,03,11,56,25.70
2012,07,03,11,57,19.30
2012,07,03,11,58,24.20
2012,07,03,11,59,20.90
2012,07,03,12,00,17.70
2012,07,03,12,01,22.50
2012,07,03,12,02,32.20
2012,07,03,12,03,25.70
2012,07,03,12,04,24.20
2012,07,03,12,05,19.30
2012,07,03,12,06,29.00
2012,07,03,12,07,16.10
2012,07,03,12,08,27.40
2012,07,03,12,09,24.20
2012,07,03,12,10,27.40
2012,07,03,12,11,19.30
2012,07,03,12,12,25.70
2012,07,03,12,13,19.30
2012,07,03,12,14,19.30
2012,07,03,12,15,19.30
2012,07,03,12,16,20.90
2012,07,03,12,17,30.60
2012,07,03,12,18,24.20
2012,07,03,12,19,20.90
2012,07,03,12,20,29.00
2012,07,03,12,21,24.20
2012,07,03,12,22,27.40
2012,07,03,12,23,20.90
2012,07,03,12,24,22.50
2012,07,03,12,25,24.20
2012,07,03,12,26,20.90
2012,07,03,12,27,27.40
2012,07,03,12,28,24.20
2012,07,03,12,29,29.00
2012,07,03,12,30,22.50
2012,07,03,12,31,24.20
2012,07,03,12,32,25.70
2012,07,03,12,33,22.50
2012,07,03,12,34,29.00
2012,07,03,12,35,22.50
2012,07,03,12,36,24.20
2012,07,03,12,37,24.20
2012,07,03,12,38,25.70
2012,07,03,12,39,27.40
2012,07,03,12,40,33.80
2012,07,03,12,41,29.00
2012,07,03,12,42,29.00
2012,07,03,12,43,22.50
2012,07,03,12,44,17.70
2012,07,03,12,45,22.50
2012,07,03,12,46,22.50
2012,07,03,12,47,20.90
2012,07,03,12,48,29.00
2012,07,03,12,49,27.40
2012,07,03,12,50,32.20
2012,07,03,12,51,22.50
2012,07,03,12,52,25.70
2012,07,03,12,53,27.40
2012,07,03,12,54,24.20
2012,07,03,12,55,24.20
2012,07,03,12,56,19.30
2012,07,03,12,57,22.50
2012,07,03,12,58,24.20
2012,07,03,12,59,24.20
2012,07,03,13,00,20.90
2012,07,03,13,01,25.70
2012,07,03,13,02,16.10
2012,07,03,13,03,24.20
2012,07,03,13,04,22.50
2012,07,03,13,05,22.50
2012,07,03,13,06,22.50
2012,07,03,13,07,25.70
2012,07,03,13,08,19.30
2012,07,03,13,09,24.20
2012,07,03,13,10,29.00
2012,07,03,13,11,29.00
2012,07,03,13,12,24.20
2012,07,03,13,13,20.90
2012,07,03,13,14,30.60
2012,07,03,13,15,35.40
2012,07,03,13,16,20.90
2012,07,03,13,17,24.20
2012,07,03,13,18,27.40
2012,07,03,13,19,32.20
2012,07,03,13,20,27.40
2012,07,03,13,21,22.50
2012,07,03,13,22,20.90
2012,07,03,13,23,22.50
2012,07,03,13,24,22.50
2012,07,03,13,25,35.40
2012,07,03,13,26,33.80
2012,07,03,13,27,29.00
2012,07,03,13,28,24.20
2012,07,03,13,29,24.20
2012,07,03,13,30,22.50
2012,07,03,13,31,19.30
2012,07,03,13,32,33.80
2012,07,03,13,33,24.20
2012,07,03,13,34,38.60
2012,07,03,13,35,37.00
2012,07,03,13,36,29.00
2012,07,03,13,37,20.90
2012,07,03,13,38,24.20
2012,07,03,13,39,27.40
2012,07,03,13,40,27.40
2012,07,03,13,41,16.10
2012,07,03,13,42,24.20
2012,07,03,13,43,14.50
2012,07,03,13,44,35.40
2012,07,03,13,45,37.00
2012,07,03,13,46,17.70
2012,07,03,13,47,11.30
2012,07,03,13,48,12.90
2012,07,03,13,49,14.50
2012,07,03,13,50,20.90
2012,07,03,13,51,16.10
2012,07,03,13,52,12.90
2012,07,03,13,53,24.20
2012,07,03,13,54,9.60
2012,07,03,13,55,3.20
2012,07,03,13,56,17.70
2012,07,03,13,57,12.90
2012,07,03,13,58,22.50
2012,07,03,13,59,30.60
2012,07,03,14,00,29.00
2012,07,03,14,01,30.60
2012,07,03,14,02,22.50
2012,07,03,14,03,25.70
2012,07,03,14,04,17.70
2012,07,03,14,05,20.90
2012,07,03,14,06,16.10
2012,07,03,14,07,19.30
2012,07,03,14,08,25.70
2012,07,03,14,09,14.50
2012,07,03,14,10,20.90
2012,07,03,14,11,19.30
2012,07,03,14,12,19.30
2012,07,03,14,13,20.90
2012,07,03,14,14,29.00
2012,07,03,14,15,16.10
2012,07,03,14,16,25.70
2012,07,03,14,17,19.30
2012,07,03,14,18,19.30
2012,07,03,14,19,22.50
2012,07,03,14,20,32.20
2012,07,03,14,21,37.00
2012,07,03,14,22,33.80
2012,07,03,14,23,27.40
2012,07,03,14,24,32.20
2012,07,03,14,25,30.60
2012,07,03,14,26,27.40
2012,07,03,14,27,29.00
2012,07,03,14,28,27.40
2012,07,03,14,29,32.20
2012,07,03,14,30,29.00
2012,07,03,14,31,17.70
2012,07,03,14,32,20.90
2012,07,03,14,33,37.00
2012,07,03,14,34,16.10
2012,07,03,14,35,24.20
2012,07,03,14,36,19.30
2012,07,03,14,37,17.70
2012,07,03,14,38,11.30
2012,07,03,14,39,19.30
2012,07,03,14,40,14.50
2012,07,03,14,41,25.70
2012,07,03,14,42,22.50
2012,07,03,14,43,19.30
2012,07,03,14,44,25.70
2012,07,03,14,45,48.30
2012,07,03,14,46,20.90
2012,07,03,14,47,29.00
2012,07,03,14,48,32.20
2012,07,03,14,49,19.30
2012,07,03,14,50,19.30
2012,07,03,14,51,24.20
2012,07,03,14,52,20.90
2012,07,03,14,53,17.70
2012,07,03,14,54,22.50
2012,07,03,14,55,16.10
2012,07,03,14,56,35.40
2012,07,03,14,57,17.70
2012,07,03,14,58,16.10
2012,07,03,14,59,29.00
2012,07,03,15,00,25.70
2012,07,03,15,01,16.10
2012,07,03,15,02,22.50
2012,07,03,15,03,19.30
2012,07,03,15,04,14.50
2012,07,03,15,05,22.50
2012,07,03,15,06,17.70
2012,07,03,15,07,22.50
2012,07,03,15,08,14.50
2012,07,03,15,09,24.20
2012,07,03,15,10,17.70
2012,07,03,15,11,11.30
2012,07,03,15,12,16.10
2012,07,03,15,13,6.40
2012,07,03,15,14,24.20
2012,07,03,15,15,24.20
2012,07,03,15,16,25.70
2012,07,03,15,17,25.70
2012,07,03,15,18,17.70
2012,07,03,15,19,16.10
2012,07,03,15,20,19.30
2012,07,03,15,21,17.70
2012,07,03,15,22,14.50
2012,07,03,15,23,12.90
2012,07,03,15,24,19.30
2012,07,03,15,25,20.90
2012,07,03,15,26,22.50
2012,07,03,15,27,22.50
2012,07,03,15,28,29.00
2012,07,03,15,29,20.90
2012,07,03,15,30,17.70
2012,07,03,15,31,17.70
2012,07,03,15,32,9.60
2012,07,03,15,33,19.30
2012,07,03,15,34,8.10
2012,07,03,15,35,9.60
2012,07,03,15,36,17.70
2012,07,03,15,37,25.70
2012,07,03,15,38,24.20
2012,07,03,15,39,19.30
2012,07,03,15,40,19.30
2012,07,03,15,41,19.30
2012,07,03,15,42,20.90
2012,07,03,15,43,22.50
2012,07,03,15,44,16.10
2012,07,03,15,45,20.90
2012,07,03,15,46,20.90
2012,07,03,15,47,22.50
2012,07,03,15,48,20.90
2012,07,03,15,49,25.70
2012,07,03,15,50,16.10
2012,07,03,15,51,16.10
2012,07,03,15,52,20.90
2012,07,03,15,53,20.90
2012,07,03,15,54,24.20
2012,07,03,15,55,22.50
2012,07,03,15,56,14.50
2012,07,03,15,57,14.50
2012,07,03,15,58,19.30
2012,07,03,15,59,19.30
2012,07,03,16,00,16.10
2012,07,03,16,01,24.20
2012,07,03,16,02,25.70
2012,07,03,16,03,8.10
2012,07,03,16,04,9.60
2012,07,03,16,05,9.60
2012,07,03,16,06,4.80
2012,07,03,16,07,11.30
2012,07,03,16,08,4.80
2012,07,03,16,09,22.50
2012,07,03,16,10,25.70
2012,07,03,16,11,24.20
2012,07,03,16,12,25.70
2012,07,03,16,13,30.60
2012,07,03,16,14,25.70
2012,07,03,16,15,16.10
2012,07,03,16,16,20.90
2012,07,03,16,17,19.30
2012,07,03,16,18,16.10
2012,07,03,16,19,24.20
2012,07,03,16,20,11.30
2012,07,03,16,21,20.90
2012,07,03,16,22,29.00
2012,07,03,16,23,20.90
2012,07,03,16,24,14.50
2012,07,03,16,25,22.50
2012,07,03,16,26,24.20
2012,07,03,16,27,19.30
2012,07,03,16,28,16.10
2012,07,03,16,29,29.00
2012,07,03,16,30,25.70
2012,07,03,16,31,35.40
2012,07,03,16,32,20.90
2012,07,03,16,33,24.20
2012,07,03,16,34,16.10
2012,07,03,16,35,14.50
2012,07,03,16,36,8.10
2012,07,03,16,37,17.70
2012,07,03,16,38,17.70
2012,07,03,16,39,16.10
2012,07,03,16,40,19.30
2012,07,03,16,41,17.70
2012,07,03,16,42,30.60
2012,07,03,16,43,17.70
2012,07,03,16,44,27.40
2012,07,03,16,45,22.50
2012,07,03,16,46,19.30
2012,07,03,16,47,19.30
2012,07,03,16,48,17.70
2012,07,03,16,49,14.50
2012,07,03,16,50,17.70
2012,07,03,16,51,17.70
2012,07,03,16,52,29.00
2012,07,03,16,53,25.70
2012,07,03,16,54,22.50
2012,07,03,16,55,19.30
2012,07,03,16,56,25.70
2012,07,03,16,57,22.50
2012,07,03,16,58,24.20
2012,07,03,16,59,29.00
2012,07,03,17,00,16.10
2012,07,03,17,01,19.30
2012,07,03,17,02,16.10
2012,07,03,17,03,17.70
2012,07,03,17,04,11.30
2012,07,03,17,05,20.90
2012,07,03,17,06,24.20
2012,07,03,17,07,11.30
2012,07,03,17,08,11.30
2012,07,03,17,09,16.10
2012,07,03,17,10,29.00
2012,07,03,17,11,17.70
2012,07,03,17,12,25.70
2012,07,03,17,13,14.50
2012,07,03,17,14,11.30
2012,07,03,17,15,27.40
2012,07,03,17,16,17.70
2012,07,03,17,17,17.70
2012,07,03,17,18,6.40
2012,07,03,17,19,11.30
2012,07,03,17,20,14.50
2012,07,03,17,21,22.50
2012,07,03,17,22,25.70
2012,07,03,17,23,20.90
2012,07,03,17,24,32.20
2012,07,03,17,25,22.50
2012,07,03,17,26,22.50
2012,07,03,17,27,16.10
2012,07,03,17,28,20.90
2012,07,03,17,29,16.10
2012,07,03,17,30,20.90
2012,07,03,17,31,17.70
2012,07,03,17,32,19.30
2012,07,03,17,33,24.20
2012,07,03,17,34,20.90
2012,07,03,17,35,19.30
2012,07,03,17,36,20.90
2012,07,03,17,37,11.30
2012,07,03,17,38,25.70
2012,07,03,17,39,24.20
2012,07,03,17,40,14.50
2012,07,03,17,41,22.50
2012,07,03,17,42,14.50
2012,07,03,17,43,17.70
2012,07,03,17,44,19.30
2012,07,03,17,45,14.50
2012,07,03,17,46,20.90
2012,07,03,17,47,22.50
2012,07,03,17,48,19.30
2012,07,03,17,49,17.70
2012,07,03,17,50,19.30
2012,07,03,17,51,22.50
2012,07,03,17,52,19.30
2012,07,03,17,53,32.20
2012,07,03,17,54,29.00
2012,07,03,17,55,22.50
2012,07,03,17,56,27.40
2012,07,03,17,57,22.50
2012,07,03,17,58,17.70
2012,07,03,17,59,19.30
2012,07,03,18,00,25.70
2012,07,03,18,01,22.50
2012,07,03,18,02,19.30
2012,07,03,18,03,16.10
2012,07,03,18,04,20.90
2012,07,03,18,05,22.50
2012,07,03,18,06,24.20
2012,07,03,18,07,19.30
2012,07,03,18,08,24.20
2012,07,03,18,09,9.60
2012,07,03,18,10,14.50
2012,07,03,18,11,6.40
2012,07,03,18,12,17.70
2012,07,03,18,13,20.90
2012,07,03,18,14,8.10
2012,07,03,18,15,11.30
2012,07,03,18,16,20.90
2012,07,03,18,17,11.30
2012,07,03,18,18,17.70
2012,07,03,18,19,8.10
2012,07,03,18,20,9.60
2012,07,03,18,21,14.50
2012,07,03,18,22,9.60
2012,07,03,18,23,4.80
2012,07,03,18,24,4.80
2012,07,03,18,25,6.40
2012,07,03,18,26,17.70
2012,07,03,18,27,9.60
2012,07,03,18,28,9.60
2012,07,03,18,29,8.10
2012,07,03,18,30,11.30
2012,07,03,18,31,11.30
2012,07,03,18,32,14.50
2012,07,03,18,33,6.40
2012,07,03,18,34,11.30
2012,07,03,18,35,8.10
2012,07,03,18,36,20.90
2012,07,03,18,37,11.30
2012,07,03,18,38,8.10
2012,07,03,18,39,11.30
2012,07,03,18,40,27.40
2012,07,03,18,41,27.40
2012,07,03,18,42,14.50
2012,07,03,18,43,9.60
2012,07,03,18,44,6.40
2012,07,03,18,45,6.40
2012,07,03,18,46,6.40
2012,07,03,18,47,3.20
2012,07,03,18,48,3.20
2012,07,03,18,49,6.40
2012,07,03,18,50,8.10
2012,07,03,18,51,8.10
2012,07,03,18,52,14.50
2012,07,03,18,53,16.10
2012,07,03,18,54,11.30
2012,07,03,18,55,11.30
2012,07,03,18,56,16.10
2012,07,03,18,57,16.10
2012,07,03,18,58,14.50
2012,07,03,18,59,17.70
2012,07,03,19,00,11.30
2012,07,03,19,01,11.30
2012,07,03,19,02,11.30
2012,07,03,19,03,16.10
2012,07,03,19,04,6.40
2012,07,03,19,05,9.60
2012,07,03,19,06,4.80
2012,07,03,19,07,9.60
2012,07,03,19,08,12.90
2012,07,03,19,09,6.40
2012,07,03,19,10,12.90
2012,07,03,19,11,17.70
2012,07,03,19,12,14.50
2012,07,03,19,13,6.40
2012,07,03,19,14,9.60
2012,07,03,19,15,17.70
2012,07,03,19,16,20.90
2012,07,03,19,17,14.50
2012,07,03,19,18,24.20
2012,07,03,19,19,24.20
2012,07,03,19,20,17.70
2012,07,03,19,21,11.30
2012,07,03,19,22,16.10
2012,07,03,19,23,19.30
2012,07,03,19,24,24.20
2012,07,03,19,25,11.30
2012,07,03,19,26,11.30
2012,07,03,19,27,16.10
2012,07,03,19,28,12.90
2012,07,03,19,29,17.70
2012,07,03,19,30,22.50
2012,07,03,19,31,17.70
2012,07,03,19,32,11.30
2012,07,03,19,33,16.10
2012,07,03,19,34,17.70
2012,07,03,19,35,16.10
2012,07,03,19,36,16.10
2012,07,03,19,37,19.30
2012,07,03,19,38,16.10
2012,07,03,19,39,8.10
2012,07,03,19,40,9.60
2012,07,03,19,41,9.60
2012,07,03,19,42,17.70
2012,07,03,19,43,14.50
2012,07,03,19,44,14.50
2012,07,03,19,45,17.70
2012,07,03,19,46,17.70
2012,07,03,19,47,6.40
2012,07,03,19,48,11.30
2012,07,03,19,49,9.60
2012,07,03,19,50,9.60
2012,07,03,19,51,9.60
2012,07,03,19,52,8.10
2012,07,03,19,53,11.30
2012,07,03,19,54,17.70
2012,07,03,19,55,3.20
2012,07,03,19,56,6.40
2012,07,03,19,57,8.10
2012,07,03,19,58,17.70
2012,07,03,19,59,14.50
2012,07,03,20,00,9.60
2012,07,03,20,01,9.60
2012,07,03,20,02,11.30
2012,07,03,20,03,11.30
2012,07,03,20,04,8.10
2012,07,03,20,05,11.30
2012,07,03,20,06,9.60
2012,07,03,20,07,16.10
2012,07,03,20,08,14.50
2012,07,03,20,09,11.30
2012,07,03,20,10,16.10
2012,07,03,20,11,9.60
2012,07,03,20,12,9.60
2012,07,03,20,13,11.30
2012,07,03,20,14,11.30
2012,07,03,20,15,9.60
2012,07,03,20,16,19.30
2012,07,03,20,17,14.50
2012,07,03,20,18,4.80
2012,07,03,20,19,9.60
2012,07,03,20,20,16.10
2012,07,03,20,21,17.70
2012,07,03,20,22,17.70
2012,07,03,20,23,16.10
2012,07,03,20,24,16.10
2012,07,03,20,25,17.70
2012,07,03,20,26,20.90
2012,07,03,20,27,16.10
2012,07,03,20,28,19.30
2012,07,03,20,29,16.10
2012,07,03,20,30,17.70
2012,07,03,20,31,14.50
2012,07,03,20,32,14.50
2012,07,03,20,33,17.70
2012,07,03,20,34,12.90
2012,07,03,20,35,9.60
2012,07,03,20,36,11.30
2012,07,03,20,37,14.50
2012,07,03,20,38,11.30
2012,07,03,20,39,17.70
2012,07,03,20,40,14.50
2012,07,03,20,41,16.10
2012,07,03,20,42,12.90
2012,07,03,20,43,16.10
2012,07,03,20,44,9.60
2012,07,03,20,45,11.30
2012,07,03,20,46,16.10
2012,07,03,20,47,11.30
2012,07,03,20,48,17.70
2012,07,03,20,49,11.30
2012,07,03,20,50,11.30
2012,07,03,20,51,11.30
2012,07,03,20,52,8.10
2012,07,03,20,53,12.90
2012,07,03,20,54,8.10
2012,07,03,20,55,12.90
2012,07,03,20,56,9.60
2012,07,03,20,57,11.30
2012,07,03,20,58,17.70
2012,07,03,20,59,22.50
2012,07,03,21,00,14.50
2012,07,03,21,01,16.10
2012,07,03,21,02,19.30
2012,07,03,21,03,6.40
2012,07,03,21,04,16.10
2012,07,03,21,05,6.40
2012,07,03,21,06,14.50
2012,07,03,21,07,11.30
2012,07,03,21,08,9.60
2012,07,03,21,09,14.50
2012,07,03,21,10,14.50
2012,07,03,21,11,11.30
2012,07,03,21,12,11.30
2012,07,03,21,13,14.50
2012,07,03,21,14,8.10
2012,07,03,21,15,11.30
2012,07,03,21,16,12.90
2012,07,03,21,17,14.50
2012,07,03,21,18,9.60
2012,07,03,21,19,9.60
2012,07,03,21,20,11.30
2012,07,03,21,21,11.30
2012,07,03,21,22,8.10
2012,07,03,21,23,11.30
2012,07,03,21,24,14.50
2012,07,03,21,25,11.30
2012,07,03,21,26,8.10
2012,07,03,21,27,8.10
2012,07,03,21,28,6.40
2012,07,03,21,29,8.10
2012,07,03,21,30,8.10
2012,07,03,21,31,6.40
2012,07,03,21,32,9.60
2012,07,03,21,33,8.10
2012,07,03,21,34,6.40
2012,07,03,21,35,4.80
2012,07,03,21,36,3.20
2012,07,03,21,37,22.50
2012,07,03,21,38,11.30
2012,07,03,21,39,9.60
2012,07,03,21,40,16.10
2012,07,03,21,41,14.50
2012,07,03,21,42,19.30
2012,07,03,21,43,9.60
2012,07,03,21,44,4.80
2012,07,03,21,45,6.40
2012,07,03,21,46,8.10
2012,07,03,21,47,4.80
2012,07,03,21,48,8.10
2012,07,03,21,49,4.80
2012,07,03,21,50,6.40
2012,07,03,21,51,3.20
2012,07,03,21,52,6.40
2012,07,03,21,53,11.30
2012,07,03,21,54,11.30
2012,07,03,21,55,4.80
2012,07,03,21,56,6.40
2012,07,03,21,57,8.10
2012,07,03,21,58,8.10
2012,07,03,21,59,8.10
2012,07,03,22,00,11.30
2012,07,03,22,01,9.60
2012,07,03,22,02,9.60
2012,07,03,22,03,8.10
2012,07,03,22,04,6.40
2012,07,03,22,05,8.10
2012,07,03,22,06,6.40
2012,07,03,22,07,8.10
2012,07,03,22,08,4.80
2012,07,03,22,09,9.60
2012,07,03,22,10,9.60
2012,07,03,22,11,8.10
2012,07,03,22,12,14.50
2012,07,03,22,13,4.80
2012,07,03,22,14,4.80
2012,07,03,22,15,6.40
2012,07,03,22,16,6.40
2012,07,03,22,17,4.80
2012,07,03,22,18,8.10
2012,07,03,22,19,6.40
2012,07,03,22,20,8.10
2012,07,03,22,21,3.20
2012,07,03,22,22,9.60
2012,07,03,22,23,4.80
2012,07,03,22,24,6.40
2012,07,03,22,25,6.40
2012,07,03,22,26,9.60
2012,07,03,22,27,11.30
2012,07,03,22,28,16.10
2012,07,03,22,29,8.10
2012,07,03,22,30,4.80
2012,07,03,22,31,9.60
2012,07,03,22,32,8.10
2012,07,03,22,33,9.60
2012,07,03,22,34,3.20
2012,07,03,22,35,4.80
2012,07,03,22,36,9.60
2012,07,03,22,37,6.40
2012,07,03,22,38,4.80
2012,07,03,22,39,9.60
2012,07,03,22,40,9.60
2012,07,03,22,41,4.80
2012,07,03,22,42,8.10
2012,07,03,22,43,4.80
2012,07,03,22,44,6.40
2012,07,03,22,45,8.10
2012,07,03,22,46,4.80
2012,07,03,22,47,9.60
2012,07,03,22,48,1.60
2012,07,03,22,49,6.40
2012,07,03,22,50,1.60
2012,07,03,22,51,6.40
2012,07,03,22,52,4.80
2012,07,03,22,53,1.60
2012,07,03,22,54,1.60
2012,07,03,22,56,1.60
2012,07,03,22,57,1.60
2012,07,03,22,58,1.60
2012,07,03,22,59,1.60
2012,07,03,23,01,1.60
2012,07,03,23,02,4.80
2012,07,03,23,03,4.80
2012,07,03,23,04,4.80
2012,07,03,23,05,4.80
2012,07,03,23,06,6.40
2012,07,03,23,07,1.60
2012,07,03,23,09,4.80